Location: Oak Glen
(34.0495°N, 116.9470°E)
Time: 23:09:26
(UTC-07:00)

N. Korean satellite - Pass Details

Date: 14 October 2017
Orbit: 459 x 517 km, 97.2° (Epoch: 22 October)

Event Time Altitude Azimuth Distance (km) Brightness Sun altitude
Rises 03:45:17 0° 185° (S) 2,556 10.3 -14.4°
Reaches altitude 10° 03:47:28 10° 194° (SSW) 1,668 9.4 -14.8°
Maximum altitude 03:50:47 36° 262° (W) 786 8.3 -15.5°
Drops below altitude 10° 03:54:05 10° 330° (NNW) 1,649 9.7 -16.2°
Sets 03:56:14 0° 339° (NNW) 2,522 10.5 -16.6°
